Regional Weather Roundup
Issued by NWS Austin/San Antonio, TX

Home | Current Version | Previous Version | Text Only | Print | Product List | Glossary On
Versions: 1 2 3 4 5 6 7 8 9 10 11 12 13 14 15 16 17 18 19 20 21 22 23 24 25 26 27 28 29 30 31 32 33 34 35 36 37 38 39 40 41 42 43 44 45 46 47 48 49 50
000
ASUS44 KEWX 172002
RWREWX
SOUTH TEXAS REGIONAL WEATHER ROUNDUP
NATIONAL WEATHER SERVICE AUSTIN/SAN ANTONIO TX
300 PM CDT THU AUG 17 2017

NOTE: "FAIR" INDICATED FEW OR NO CLOUDS BELOW 12,000 FEET WITH NO
SIGNIFICANT WEATHER AND/OR OBSTRUCTIONS TO VISIBILITY.

* - THESE STATIONS ARE NOT NWS OR FAA STATIONS...AND ARE NOT SUBJECT
    TO NWS AND FAA QUALITY CONTROL.

TXZ171-172-183>190-172100-
TEXAS HILL COUNTRY AND EDWARDS PLATEAU

CITY           SKY/WX    TMP DP  RH WIND       PRES   REMARKS
JUNCTION       PTSUNNY   95  67  39 S6        29.99F HX  99
*LLANO         SUNNY     97  72  44 S7        30.01F HX 105
BURNET         MOSUNNY   95  71  45 SW9       30.02F HX 102
*HORSESHOE BAY MOSUNNY   98  66  35 S5        30.00F HX 101
*KERRVILLE     SUNNY     93  71  48 S8        30.04F HX  99
*FREDERICKSBRG SUNNY     91  65  43 S12       30.05F HX  93
*ROCKSPRINGS   NOT AVBL
*BOERNE STAGE  SUNNY    N/A N/A N/A S8        30.04F
*CASTROVILLE   SUNNY     96  63  33 SE8       30.02F HX  97
HONDO          SUNNY     96  69  41 SE12G18   30.00F HX 102
*UVALDE        SUNNY     97  65  34 SE8       29.99F HX 100
DEL RIO        CLOUDY    97  68  38 SE9G21    29.95F HX 102
LAUGHLIN AFB   PTSUNNY   98  70  40 S15       29.95F HX 105
CARRIZO SPRGS  MOSUNNY  100  61  27 S13G21    29.93F HX 101
*EAGLE PASS    NOT AVBL
$$

TXZ173-191>194-202-209-217>225-228-172100-
CENTRAL AND SOUTH CENTRAL TEXAS

CITY           SKY/WX    TMP DP  RH WIND       PRES   REMARKS
GEORGETOWN     SUNNY     96  71  44 VRB7G16   30.01F HX 103
AUSTIN/BERGSTM MOSUNNY   98  69  38 S9        29.99F HX 104
AUSTIN/MABRY   SUNNY     99  66  33 S7        30.00F HX 103
*AUSTIN/EXEC   SUNNY     95  66  38 S10G16    30.00F HX  98
*LAGO VISTA    MOSUNNY   96  67  39 S6        30.02F HX 100
SAN MARCOS     SUNNY     97  72  44 S12       30.00F HX 105
NEW BRAUNFELS  SUNNY     97  69  40 S12G22    29.99F HX 103
RANDOLPH AFB   SUNNY     96  69  41 SE10G17   30.00F HX 101
PT SAN ANTONIO MOSUNNY   94  71  46 SE9       29.98F HX 101
SAN ANTONIO    MOSUNNY   94  68  42 S13       30.01F HX  98
STINSON FIELD  SUNNY     97  70  41 S8        29.98F HX 103
*LA GRANGE     SUNNY    102  70  35 S6        29.97F HX 109
*GIDDINGS      SUNNY     97  64  34 SW8       30.01F HX  99
*GONZALES      SUNNY    101  69  35 S9G17     29.98F HX 108
$$

TXZ163>164-176>182-195>201-210>213-226-227-235-172100-
SOUTHEAST TEXAS

CITY           SKY/WX    TMP DP  RH WIND       PRES   REMARKS
COLLEGE STN    SUNNY     97  70  41 SW6       29.99F HX 103
*BRYAN         MOSUNNY   97  68  38 S12       30.01F HX 102
*CALDWELL      NOT AVBL
*CROCKETT      MOSUNNY   84  73  70 E9        30.06F HX  91
*BRENHAM       MOSUNNY  100  67  34 S10       30.00F HX 104
HUNTSVILLE     PTSUNNY   96  67  38 VRB6      30.02F HX 100
CONROE         MOSUNNY   93  71  48 VRB6      30.02F HX 100
HOUSTON BUSH   MOSUNNY   97  70  41 S6        30.01F HX 103
HOUSTON HOBBY  MOSUNNY   98  71  41 SW9       30.01F HX 106
*HOUSTON SW AP MOSUNNY   95  71  45 S5        30.02F HX 102
PEARLAND       MOSUNNY   97  71  42 S9        30.03F HX 104
HOUSTON HOOKS  MOSUNNY   96  73  47 SW5       30.01F HX 105
ELLINGTON FLD  MOSUNNY   99  75  47 SE8       30.04F HX 111
SUGAR LAND     MOSUNNY   97  71  42 S9        30.01F HX 104
*HOUSTON EXEC  MOSUNNY   95  73  49 S12       30.03F HX 105
*CLEVELAND MUN SUNNY     96  73  46 SW6       30.03F HX 105
*WHARTON       MOSUNNY   93  68  44 S13       30.03F HX  97
*COLUMBUS      PTSUNNY   95  68  41 S9        30.01F HX  99
*EAGLE LAKE    PTCLDY    98  71  41 S7G17     30.00F HX 106
$$

TXZ214>216-236>238-172100-
THE UPPER TEXAS COAST

CITY           SKY/WX    TMP DP  RH WIND       PRES   REMARKS
*ORANGE        MOSUNNY   93  78  62 S10G17    30.05F HX 109
PORT ARTHUR    MOSUNNY   94  75  54 SW10      30.03F HX 105
GALVESTON      MOSUNNY   91  80  70 SW9       30.06S HX 109
ANGLETON       MOSUNNY   92  77  61 S10       30.04F HX 105
*BAY CITY      MOSUNNY   92  76  59 S9        30.03F HX 105
PALACIOS       MOSUNNY   88  77  69 S12       30.03F HX 100
$$

TXZ229>234-239>247-172100-
TEXAS COASTAL BEND AND RIO GRANDE PLAINS

CITY           SKY/WX    TMP DP  RH WIND       PRES   REMARKS
VICTORIA       MOSUNNY   96  73  47 S15G24    30.01F HX 105
*BEEVILLE      PTSUNNY   99  69  37 S15G22    29.98F HX 105
ROCKPORT         N/A    N/A N/A N/A MISG      30.00F
*PORT ARANSAS  SUNNY     89  78  69 S12       30.00F HX 103
*PORT LAVACA   MOSUNNY   92  73  52 S12G17    30.02F HX 100
*INGLESIDE     SUNNY     94  75  53 MISG      30.00F HX 106
CORPUS CHRISTI MOSUNNY   94  74  52 SE20G25   29.98F HX 104
CORPUS NAS     MOSUNNY   94  78  60 SE20G28   30.00F HX 110
*ROBSTOWN      MOSUNNY   98  72  43 SE16G23   29.97F HX 106
ALICE          MOSUNNY  101  66  31 SE13G24   29.95F HX 105
KINGSVILLE NAS MOSUNNY   98  77  50 SE18G28   29.96F HX 113
COTULLA        MOSUNNY  100  60  26 S10G18    29.95F HX 100
*FAITH RANCH   SUNNY    100  61  27 SE13G21   29.94F HX 101
LAREDO         MOSUNNY  101  67  32 SE17G29   29.93F HX 106
$$

TXZ248>255-172100-
DEEP SOUTH TEXAS

CITY           SKY/WX    TMP DP  RH WIND       PRES   REMARKS
BROWNSVILLE    MOSUNNY   95  75  52 SE16G28   29.97F HX 107
PORT ISABEL    MOSUNNY   94  75  54 SE16G30   29.97F HX 105
*SOUTH PADRE   NOT AVBL
HARLINGEN      MOSUNNY   96  72  45 S20G29    29.95F HX 104
*HEBBRONVILLE  MOSUNNY   97  62  32 S17G25    29.96F HX  98
MCALLEN        MOSUNNY  100  71  39 SE16G31   29.94F HX 108
*WESLACO       MOSUNNY   97  70  40 SE18G29   29.94F HX 103
FALFURRIAS     SUNNY    101  64  29 SE14G24   29.94F HX 103
EDINBURG       SUNNY     99  65  31 SE17G25   29.95F HX 102
*ZAPATA        SUNNY    101  63  28 SE15G24   29.91F HX 103
$$

TXZ213>215-236>238-242>244-246-247-251-254-255-172100-
CMAN STATIONS

STATION/POSITION TIME  TEMP    WIND        PRES    WAVE
                       AIR SEA DIR/SP/G            HT/PER
                 (UTC) (F)     (DEG/KT/KT) (MB)    (FT/S)
SABINE PASS      1930   90 89  210/  7/ 14 1019.3
SEA RIM ST PARK  1900   88     210/  9/ 11 1018.4
NORTH JETTY/GLS  1930      88  180/ 12/ 14 1017.3
EAGLE POINT      1930   89 89  190/ 12/ 16 1017.5
MORGANS POINT    1930   92 87  150/  7/ 11 1017.0
MISSION/ARANSAS  1900          160/ 12     1017.0
PORT O`CONNOR    1930   86     160/ 12/ 15 1016.6
PORT ARANSAS     1900   84 87  160/  9/ 10 1017.1
MALAQUITE BEACH  1930   84 87  130/ 12/ 14 1015.6
BAFFIN BAY       1930   86 89              1015.9
PORT ISABEL      1930   87 83              1015.8
$$




USA.gov is the U.S. government's official web portal to all federal, state and local government web resources and services.